Date String (YYYY-MM-DD hh:mm:ss) UTC,Instrument flags,Ambient pressure (hPa),Sample flow (lpm),Bypass flow (lpm),Sample temperature (°C),Ambient temperature (°C),ASC tube jacket temperature (°C),LED temperature (°C),Box temperature (°C),Sample RH (%),Span deviation,Mass concentration (μg/m³),Mass concentration (μg/m³),Mass concentration (μg/m³)
DateTimeUTC,F1_M11,P_M11,Q1_M11,Q2_M11,T1_M11,T2_M11,T3_M11,T4_M11,T5_M11,U1_M11,ZSPAN_M11,X2_M11,X0_M11,X1_M11
2022-09-30 02:00:00,,0827.5,4.99,0.00,30.0,28.7,00.0,38.7,31.9,17.7,0000.0,0002.80,0004.89,0002.32
2022-09-30 02:01:00,,0827.5,5.01,0.00,30.0,28.8,00.0,38.7,31.9,17.7,0000.0,0002.84,0005.74,0002.32
2022-09-30 02:02:00,,0827.7,4.99,0.00,30.0,28.8,00.0,38.7,31.9,17.2,0000.0,0002.84,0005.78,0002.33
2022-09-30 02:03:00,,0827.6,5.01,0.00,30.0,28.9,00.0,38.7,32.0,17.4,0000.0,0002.89,0005.90,0002.33
2022-09-30 02:04:00,,0827.7,4.99,0.00,30.1,28.9,00.0,38.7,32.0,17.4,0000.0,0002.88,0005.86,0002.33
2022-09-30 02:05:00,,0827.6,5.01,0.00,30.1,29.0,00.0,38.8,32.0,17.3,0000.0,0002.90,0006.74,0002.35
2022-09-30 02:06:00,,0827.6,4.99,0.00,30.1,29.0,00.0,38.8,32.0,17.3,0000.0,0002.89,0006.98,0002.36
2022-09-30 02:07:00,,0827.6,5.03,0.00,30.1,29.0,00.0,38.8,32.0,17.3,0000.0,0002.83,0006.69,0002.35
2022-09-30 02:08:00,,0827.6,5.00,0.00,30.2,29.1,00.0,38.8,32.1,17.3,0000.0,0002.84,0006.37,0002.37
2022-09-30 02:09:00,,0827.5,5.00,0.00,30.2,29.1,00.0,38.8,32.1,17.3,0000.0,0002.89,0006.08,0002.39
2022-09-30 02:10:00,,0827.5,4.99,0.00,30.2,29.1,00.0,38.9,32.1,17.2,0000.0,0002.92,0006.13,0002.41
2022-09-30 02:11:00,,0827.6,5.02,0.00,30.2,29.2,00.0,38.9,32.1,17.1,0000.0,0002.89,0006.25,0002.41
2022-09-30 02:12:00,,0827.5,5.00,0.00,30.3,28.5,00.0,38.9,32.1,17.1,0000.0,0002.88,0005.64,0002.42
2022-09-30 02:13:00,,0827.5,5.00,0.00,30.2,27.2,00.0,38.9,32.0,17.1,0000.0,0002.94,0005.74,0002.43
2022-09-30 02:14:00,,0827.5,5.00,0.00,30.2,26.9,00.0,38.8,31.9,17.2,0000.0,0002.95,0005.72,0002.45
2022-09-30 02:15:00,,0827.5,4.99,0.00,30.1,27.1,00.0,38.8,31.8,17.2,0000.0,0002.98,0005.76,0002.47
2022-09-30 02:16:00,,0827.5,4.99,0.00,30.0,27.4,00.0,38.8,31.7,17.3,0000.0,0003.01,0005.08,0002.49
2022-09-30 02:17:00,,0827.5,5.00,0.00,30.0,27.6,00.0,38.8,31.7,17.3,0000.0,0003.03,0004.65,0002.51
2022-09-30 02:18:00,,0827.5,5.00,0.00,30.0,27.9,00.0,38.7,31.7,17.2,0000.0,0003.09,0005.00,0002.54
2022-09-30 02:19:00,,0827.5,5.02,0.00,30.0,28.1,00.0,38.7,31.7,17.2,0000.0,0003.08,0005.01,0002.55
2022-09-30 02:20:00,,0827.5,4.99,0.00,30.0,28.3,00.0,38.7,31.8,17.2,0000.0,0003.02,0004.79,0002.54
2022-09-30 02:21:00,,0827.5,5.01,0.00,30.0,28.4,00.0,38.7,31.8,17.2,0000.0,0003.01,0004.78,0002.56
2022-09-30 02:22:00,,0827.5,5.00,0.00,30.0,28.5,00.0,38.7,31.8,17.1,0000.0,0003.02,0004.74,0002.57
2022-09-30 02:23:00,,0827.6,5.00,0.00,30.0,28.6,00.0,38.7,31.9,17.0,0000.0,0003.01,0004.58,0002.58
2022-09-30 02:24:00,,0827.7,5.01,0.00,30.0,28.7,00.0,38.7,31.9,17.0,0000.0,0003.02,0004.49,0002.58
2022-09-30 02:25:00,,0827.7,4.99,0.00,30.0,28.8,00.0,38.7,31.9,17.1,0000.0,0002.99,0004.60,0002.58
2022-09-30 02:26:00,,0827.7,5.01,0.00,30.0,28.8,00.0,38.7,31.9,17.2,0000.0,0002.97,0004.73,0002.58
2022-09-30 02:27:00,,0827.7,4.98,0.00,30.1,28.9,00.0,38.8,32.0,17.3,0000.0,0002.96,0004.76,0002.58
2022-09-30 02:28:00,,0827.7,5.01,0.00,30.1,28.9,00.0,38.8,32.0,17.2,0000.0,0002.95,0004.62,0002.58
2022-09-30 02:29:00,,0827.7,4.99,0.00,30.1,29.0,00.0,38.8,32.0,16.9,0000.0,0002.94,0004.39,0002.57
2022-09-30 02:30:00,,0827.7,5.00,0.00,30.1,29.0,00.0,38.8,32.0,16.8,0000.0,0002.98,0004.41,0002.58
2022-09-30 02:31:00,,0827.7,5.01,0.00,30.2,29.0,00.0,38.8,32.0,16.7,0000.0,0003.01,0004.48,0002.59
2022-09-30 02:32:00,,0827.7,4.99,0.00,30.2,29.1,00.0,38.9,32.1,16.7,0000.0,0003.01,0004.49,0002.58
2022-09-30 02:33:00,,0827.7,5.02,0.00,30.2,29.1,00.0,38.9,32.1,16.8,0000.0,0003.04,0004.38,0002.58
2022-09-30 02:34:00,,0827.8,4.98,0.00,30.2,29.1,00.0,38.9,32.1,16.7,0000.0,0003.07,0004.42,0002.59
2022-09-30 02:35:00,,0827.7,5.01,0.00,30.3,29.2,00.0,38.9,32.2,16.6,0000.0,0003.06,0004.42,0002.59
2022-09-30 02:36:00,,0827.7,4.99,0.00,30.3,29.1,00.0,38.9,32.2,16.6,0000.0,0003.07,0004.30,0002.60
2022-09-30 02:37:00,,0827.7,5.01,0.00,30.3,27.8,00.0,38.9,32.1,16.6,0000.0,0003.06,0004.08,0002.60
2022-09-30 02:38:00,,0827.7,5.00,0.00,30.2,26.9,00.0,38.9,32.0,16.7,0000.0,0003.05,0004.04,0002.59
2022-09-30 02:39:00,,0827.7,5.01,0.00,30.2,26.9,00.0,38.8,31.9,16.7,0000.0,0003.07,0004.12,0002.59
2022-09-30 02:40:00,,0827.7,5.01,0.00,30.1,27.2,00.0,38.8,31.7,16.7,0000.0,0003.06,0004.05,0002.61
2022-09-30 02:41:00,,0827.7,5.00,0.00,30.0,27.5,00.0,38.8,31.7,16.7,0000.0,0003.05,0003.99,0002.62
2022-09-30 02:42:00,,0827.7,4.99,0.00,30.0,27.7,00.0,38.8,31.7,16.8,0000.0,0003.03,0003.92,0002.60
2022-09-30 02:43:00,,0827.8,5.00,0.00,30.0,28.0,00.0,38.7,31.7,16.8,0000.0,0003.05,0004.22,0002.60
2022-09-30 02:44:00,,0827.7,5.01,0.00,30.0,28.2,00.0,38.7,31.8,16.8,0000.0,0003.11,0004.42,0002.61
2022-09-30 02:45:00,,0827.7,4.98,0.00,30.0,28.3,00.0,38.7,31.7,16.7,0000.0,0003.10,0004.47,0002.61
2022-09-30 02:46:00,,0827.7,5.01,0.00,30.0,28.4,00.0,38.7,31.8,16.7,0000.0,0003.09,0004.53,0002.60
2022-09-30 02:47:00,,0827.7,4.99,0.00,30.0,28.5,00.0,38.7,31.8,16.6,0000.0,0003.07,0004.47,0002.60
2022-09-30 02:48:00,,0827.7,5.01,0.00,30.0,28.6,00.0,38.7,31.8,16.6,0000.0,0003.08,0004.61,0002.59
2022-09-30 02:49:00,,0827.7,4.99,0.00,30.0,28.7,00.0,38.7,31.8,16.6,0000.0,0003.12,0004.74,0002.58
2022-09-30 02:50:00,,0827.7,5.01,0.00,30.0,28.7,00.0,38.7,31.9,16.5,0000.0,0003.11,0004.63,0002.56
2022-09-30 02:51:00,,0827.7,4.99,0.00,30.0,28.8,00.0,38.8,31.9,16.5,0000.0,0003.08,0006.02,0002.54
2022-09-30 02:52:00,,0827.7,5.01,0.00,30.1,28.8,00.0,38.8,31.9,16.4,0000.0,0003.05,0006.47,0002.52
2022-09-30 02:53:00,,0827.7,4.99,0.00,30.1,28.8,00.0,38.8,31.9,16.4,0000.0,0003.04,0006.66,0002.53
2022-09-30 02:54:00,,0827.8,4.99,0.00,30.1,28.9,00.0,38.8,32.0,16.5,0000.0,0003.03,0006.42,0002.53
2022-09-30 02:55:00,,0827.7,4.99,0.00,30.1,28.9,00.0,38.8,32.0,16.4,0000.0,0002.95,0006.14,0002.53
2022-09-30 02:56:00,,0827.8,5.01,0.00,30.1,29.0,00.0,38.8,32.0,16.4,0000.0,0002.91,0006.05,0002.51
2022-09-30 02:57:00,,0827.8,4.99,0.00,30.1,29.0,00.0,38.8,32.0,16.4,0000.0,0002.92,0005.90,0002.51
2022-09-30 02:58:00,,0827.8,5.01,0.00,30.2,29.0,00.0,38.9,32.0,16.3,0000.0,0002.91,0005.89,0002.50
2022-09-30 02:59:00,,0827.9,4.98,0.00,30.2,29.0,00.0,38.9,32.0,16.3,0000.0,0002.90,0005.83,0002.49
